COSMOS 1275 DEB, 12712

Orbit data source: Space-Track

COSMOS 1275 DEB, 12712 is space debris in LEO originally from a launch on Thu, 04 Jun 1981 UTC launched from the Plesetsk Missile And Space Complex (PKMTR). Debris objects in space refer to the collection of defunct objects orbiting the Earth. Examples of debris include non-operational satellites, rocket bodies, and fragments generated from explosions, collisions, or faulty payload assembly.

Loading next visibility...
Identifier
12712, 1981-053BG
Orbit
LEO
Country
Flag of CISCIS
Related business
Manufacturer
Unknown
Mission
Spacecraft
Bus & Motor
Unknown
Mass
Unknown
Launch date (UTC)
1981-06-04 (45 years ago)
Launch vehicle
Unknown
Launch site
Plesetsk Missile And Space Complex (PKMTR)
Object type
Payload
Rocket body
Debris
Shape & HBR
Unknown shape, 0.1 m
Radar Cross Section
Small (<0.1 m²)

Expand to show TLE details & history
Last TLE update: 23 hours ago

TLE from 23 hours ago
0 COSMOS 1275 DEB
1 12712U 81053BG  26118.15405405  .00001203  00000-0  95719-3 0  9992
2 12712  82.9863 354.4080 0067577 238.4829 248.2697 13.89359751244507
Epoch: 2026-04-28T03:41Z
TLE epoch observation values (Epoch: 2026-04-28T03:41:50.269Z)
Latitude
53.47713°
Longitude
-106.69713°
Altitude
958.213 km
Speed
7.368 km/s
True Right ascension
10h 59m 34s
True Declination
53° 19' 01"
Sunlit
Object was in daylight at epoch
Visualization orbit readout
Latitude
Unknown
Longitude
Unknown
Altitude
Unknown
Speed
Unknown
Apparent Right ascension
Unknown
Apparent Declination
Unknown
Sunlit
N/A
Visualization observer readout
Local Sidereal Time
10:25:20
Azimuth
Unknown
Elevation
Unknown
Doppler factor
Unknown
Orbital elements
Apogee altitude
977.375 km
Perigee altitude
878.63 km
Semi-major axis
7,306.139 km
Eccentricity
0.00676
Inclination
82.9863°
RAAN
354.408°
Arg. of periapsis
238.4829°
True anomaly
247.55262°
Mean anomaly
248.2697°
Eccentric anomaly
247.91093°
Mean motion
3.47545 °/min
Orbital period
103.58 mins
BSTAR
0.00095719
Loading maneuver chart data...
Computing Atmospheric mass density...
Loading historical data...
Loading historical data...
Loading historical data...
Loading historical data...
Loading historical data...
Loading historical data...
Loading historical data...

Documentation

Showing up to 5 results
|